Location: ??????
(55.7522°N, 37.6156°E)
Time: 17:08:27
(UTC+00:00)

Ariane Rocket - Pass Details

Date: 14 June 2025
Orbit: 754 x 765 km, 98.5° (Epoch: 12 July)

Event Time Altitude Azimuth Distance (km) Brightness Sun altitude
Exits shadow 19:29:53 - 187° (S) 2,947 5.5 -6.9°
Reaches altitude 10° 19:31:35 10° 193° (SSW) 2,302 5.0 -7.0°
Maximum altitude 19:36:21 41° 263° (W) 1,114 4.1 -7.3°
Drops below altitude 10° 19:41:10 10° 333° (NNW) 2,316 7.3 -7.6°
Sets 19:43:38 0° 341° (NNW) 3,246 8.7 -7.8°
